Location: Unspecified
(20.0000°S, 0.0000°E)
Time: 01:34:24
(UTC+00:00)

BEESAT - Pass Details

Date: 28 August 2019
Orbit: 701 x 708 km, 98.6° (Epoch: 19 September)

Event Time Altitude Azimuth Distance (km) Brightness Sun altitude
Rises 05:14:13 0° 173° (S) 3,107 ? -14.3°
Reaches altitude 10° 05:16:30 10° 176° (S) 2,183 ? -13.8°
Maximum altitude 05:21:13 62° 256° (WSW) 793 ? -12.7°
Drops below altitude 10° 05:25:53 10° 336° (NNW) 2,161 ? -11.6°
Sets 05:28:09 0° 339° (NNW) 3,073 ? -11.1°
